Dewpoint
67 67 67 67 67 68 67 68 69 68 67 69 67 66 66 69 70 70 69 68 70 70 69 68 70 71 67 63 63 62 61 60 57 55 55 57 64 66 65 64 64 64 62
66 68 68 68 68 67 68 68 69 69 69 69 68 68 67 67 69 70 69 67 68 69 70 70 70 69 71 70 66 64 62 62 60 62 60 58 60 63 64 66 66 63 60
66 66 66 66 67 67 68 68 69 69 70 69 69 68 68 67 68 70 70 69 68 69 69 69 69 70 69 68 67 65 64 66 67 65 64 62 61 62 63 67 68 66 65
63 64 65 66 67 66 68 70 69 70 70 69 69 68 68 67 67 68 69 69 69 68 69 69 70 70 71 71 71 70 70 69 67 66 64 61 60 61 62 63 64 63 62
64 63 65 68 68 68 69 70 70 70 70 70 69 69 69 68 65 67 67 67 68 68 68 70 70 71 71 72 71 71 71 69 66 63 61 60 60 60 62 63 64 64 64
65 65 66 70 70 70 70 71 71 71 70 70 69 69 68 67 64 64 67 66 67 68 68 69 70 71 71 71 71 71 71 71 71 68 65 63 68 68 66 66 65 65 66
67 67 68 70 70 71 71 72 71 71 71 71 70 69 70 70 66 64 65 66 65 67 69 69 68 66 70 70 70 70 70 70 70 71 71 71 71 71 72 73 70 71 71
68 69 69 70 71 71 72 72 72 71 71 71 71 71 71 71 68 66 65 67 68 68 68 69 70 69 68 67 68 68 69 70 72 71 71 71 71 71 72 73 73 73 72
68 69 70 71 71 71 71 71 71 71 71 71 71 71 71 72 68 68 67 67 67 69 69 70 70 70 71 70 70 69 69 69 67 67 68 69 70 70 70 71 71 70 70
68 69 70 71 71 71 71 72 72 71 71 70 70 71 71 72 71 67 68 68 66 66 69 71 70 69 70 69 70 69 69 67 67 67 69 71 70 70 70 70 72 71 71
67 67 69 71 72 72 72 73 72 71 70 71 70 71 72 72 72 68 66 70 66 64 64 62 64 65 68 67 68 70 70 70 70 71 73 73 73 72 73 74 74 72 71
68 68 70 71 70 70 72 72 72 72 71 71 71 70 70 71 71 69 67 67 69 67 65 62 65 66 65 66 66 68 69 69 70 71 71 71 72 73 73 73 74 74 74
68 69 69 70 70 70 71 71 71 72 70 70 69 69 68 69 71 69 67 66 67 69 69 68 69 69 68 68 67 68 67 70 70 71 72 72 73 73 73 72 72 72 70
68 69 70 70 70 69 70 71 70 69 69 67 68 67 67 68 68 70 70 67 65 67 69 70 71 71 71 71 72 70 71 72 72 72 70 70 72 71 70 66 61 60 60
69 69 70 70 70 70 70 69 69 69 67 68 67 67 67 67 68 70 70 71 71 70 70 70 70 70 71 71 72 73 73 73 70 69 70 70 70 67 62 61 61 61 60
68 67 67 67 69 69 70 69 60 62 64 65 66 68 69 69 70 70 71 71 70 69 70 70 71 72 72 72 72 73 73 72 71 70 69 66 63 61 61 61 61 62 62
68 69 69 67 68 69 70 69 66 63 62 64 64 66 67 67 69 70 69 67 67 71 72 72 73 74 73 72 72 71 69 68 68 66 64 62 61 61 62 62 62 62 59
66 66 67 66 65 65 65 66 63 61 68 68 63 63 64 66 67 67 66 67 67 67 72 72 72 71 69 68 67 66 66 65 64 63 62 61 61 62 62 62 61 59 59
64 64 65 66 66 69 68 68 63 67 69 68 65 59 56 58 62 62 64 73 72 70 67 67 67 66 65 65 64 65 64 63 62 61 61 62 62 62 62 62 61 60 60
61 63 63 66 68 70 69 69 70 70 69 67 66 65 59 62 65 64 65 68 69 67 65 65 64 64 64 64 64 63 62 62 62 62 62 62 62 63 62 61 61 60 60
57 60 61 62 65 67 67 67 68 69 68 68 67 62 63 66 66 65 64 64 64 65 65 64 64 62 64 64 64 63 62 61 61 61 61 61 61 62 62 61 61 61 60
52 55 59 60 63 64 65 64 64 66 64 60 59 59 60 62 61 59 58 57 57 58 60 60 59 58 58 58 58 59 59 59 59 59 59 59 61 61 61 60 60 59 57
51 51 54 58 62 63 63 63 62 62 61 60 59 59 58 57 56 55 53 52 52 52 53 54 54 52 52 52 52 52 53 54 54 54 54 56 59 60 61 60 57 55 55
50 55 58 59 61 61 62 61 60 59 58 57 56 55 55 54 52 51 51 50 50 50 50 50 50 50 50 49 50 49 47 45 45 47 52 54 56 57 60 60 58 55 55
53 56 58 59 59 58 58 58 57 56 55 54 53 53 52 51 50 49 49 49 49 48 48 49 49 47 46 44 43 45 40 36 41 44 48 51 54 55 56 57 57 57 56
48 49 50 49 48 48 49 49 49 50 50 50 50 50 50 50 49 49 49 48 47 45 43 42 41 39 36 31 30 31 31 32 38 38 45 51 52 52 52 52 54 56 57
Wind_Speed
33 31 29 29 28 25 24 22 21 19 17 18 17 17 17 17 16 16 14 11 13 12 11 11 12 10 10 9 9 10 10 10 14 14 12 10 11 12 15 14 15 16 17
32 31 31 29 27 28 26 24 21 21 21 20 19 18 19 18 17 18 17 16 16 15 14 14 14 13 14 12 11 11 12 11 15 17 16 17 15 14 15 16 18 20 21
32 34 33 33 31 28 27 26 23 22 22 22 21 20 20 19 18 19 18 18 16 17 16 16 16 16 16 15 14 14 15 15 15 17 19 17 18 16 17 17 17 19 20
34 34 32 33 32 31 27 25 26 23 23 23 22 22 21 21 20 20 19 19 17 18 18 18 18 18 18 18 17 17 16 16 16 18 20 19 18 17 16 19 20 18 20
32 35 33 30 29 28 27 26 25 24 24 24 23 23 22 21 21 22 21 20 20 20 19 19 20 20 20 20 18 17 15 17 18 18 19 19 19 18 17 21 25 24 22
32 35 30 29 29 29 27 27 26 26 25 24 25 24 24 22 23 24 22 21 22 21 21 21 20 17 21 23 23 25 22 18 19 20 22 22 18 20 22 23 27 27 31
32 31 30 30 30 30 28 27 27 27 25 25 25 25 24 24 23 25 27 24 22 22 21 21 21 21 21 20 21 26 27 29 29 26 26 24 24 20 22 23 25 26 28
30 30 30 30 30 28 28 28 26 26 25 24 25 24 24 24 24 27 27 25 24 23 21 22 22 22 20 20 20 20 20 20 20 21 23 23 22 20 18 20 22 23 25
31 32 32 31 30 29 28 27 27 25 25 25 25 25 25 25 26 29 26 24 26 26 24 24 24 24 23 22 24 24 24 23 21 24 28 30 30 29 27 23 22 23 25
34 33 28 28 28 29 28 27 26 25 26 25 26 25 27 26 24 28 29 24 24 25 24 24 27 29 23 22 23 25 25 23 23 23 22 18 20 21 25 21 21 19 22
29 30 28 28 27 26 25 24 25 25 23 24 24 23 24 26 25 29 30 26 25 23 25 23 23 27 33 33 29 26 24 19 22 20 18 18 17 17 16 11 13 18 20
25 26 26 26 26 25 24 23 22 22 23 21 22 22 22 23 24 22 30 35 25 24 23 21 19 16 21 26 25 24 26 26 21 19 19 18 17 16 17 16 17 19 17
23 23 24 24 25 20 23 23 22 22 22 23 22 21 21 20 22 30 28 33 36 27 23 19 10 3 11 15 20 22 19 15 16 16 16 15 15 15 15 15 18 17 18
21 21 21 21 21 20 19 20 21 22 23 22 22 22 21 21 21 20 22 20 27 23 29 24 20 14 13 14 10 12 13 15 15 14 12 12 12 11 14 13 14 15 16
17 17 17 17 19 18 17 13 18 17 8 20 20 19 19 20 19 18 17 17 18 22 20 19 19 21 21 19 16 16 13 11 11 9 9 11 13 11 10 10 12 13 14
14 15 16 15 16 16 18 11 8 5 9 8 8 7 16 7 3 13 12 10 5 12 15 16 14 14 15 14 14 12 10 10 9 10 10 10 10 9 9 9 9 10 12
10 10 11 12 13 14 8 8 7 4 2 7 9 11 9 3 7 8 10 11 10 13 15 13 13 12 11 9 9 9 10 9 7 8 9 8 8 8 6 8 10 11 9
12 6 10 18 14 11 7 8 4 19 17 13 7 7 9 10 9 7 10 13 7 9 10 9 8 8 8 8 8 9 10 9 8 7 7 7 8 6 8 8 12 10 10
11 6 5 5 7 8 13 3 3 13 23 16 5 4 2 6 8 10 14 13 12 10 7 6 6 6 7 8 7 5 5 5 5 6 6 6 7 7 8 9 13 8 9
10 7 5 5 5 8 6 21 13 13 16 11 14 9 10 8 9 8 5 5 8 8 9 9 8 6 6 5 5 6 7 6 5 6 6 6 7 8 10 11 10 10 12
8 7 3 1 7 6 5 3 7 12 19 18 10 5 10 9 12 10 9 6 6 6 6 7 7 7 5 3 2 3 4 5 5 6 7 7 7 9 11 10 11 9 12
11 8 7 4 6 5 4 5 6 8 6 6 7 9 12 10 10 9 10 10 10 10 7 6 6 5 3 2 1 1 3 5 5 6 7 7 8 9 10 11 12 10 10
10 9 6 2 2 7 7 8 8 7 9 9 11 12 11 12 12 12 12 10 10 10 8 7 5 5 4 4 3 3 5 6 7 8 10 10 9 9 9 12 13 11 6
8 7 6 2 5 3 3 6 8 9 7 8 9 9 10 11 12 13 13 11 10 10 10 9 9 8 6 5 5 6 8 8 8 9 10 11 12 10 11 12 15 12 8
7 4 5 6 6 6 5 5 7 7 6 4 5 8 10 11 12 12 12 11 12 12 11 10 10 10 11 11 11 11 13 14 10 12 9 10 11 13 15 15 14 14 13
13 12 12 12 15 15 14 13 12 10 10 7 7 7 8 9 10 11 12 12 13 12 13 12 11 12 10 13 15 17 16 17 15 17 13 10 8 9 11 13 15 14 15
Wind_Direction
201 201 205 208 209 212 217 218 222 223 215 221 219 219 216 212 211 211 224 232 212 221 231 228 229 242 251 239 233 248 253 255 268 276 279 279 253 272 284 276 260 260 261
201 201 201 205 208 209 214 216 217 219 215 218 216 214 217 218 214 215 219 225 223 227 227 229 234 232 232 243 249 249 261 262 266 275 282 286 277 272 272 276 275 276 273
199 201 205 206 206 209 209 214 211 214 216 219 219 215 215 217 216 218 222 226 228 230 231 230 232 233 236 245 239 249 244 244 251 264 278 283 284 285 281 272 266 271 270
197 201 203 203 203 206 207 208 211 210 214 217 217 218 219 218 219 220 221 228 230 230 233 232 231 232 235 236 239 244 250 263 265 262 271 276 277 285 279 282 283 273 280
195 201 202 202 200 200 202 204 207 208 213 217 216 217 219 220 220 220 225 227 230 233 236 232 233 235 237 238 242 240 248 252 260 267 273 277 279 284 293 300 297 294 289
198 200 198 195 197 199 199 200 202 206 210 213 217 218 219 223 220 217 221 228 232 234 238 240 244 237 235 241 245 253 261 262 257 267 275 278 283 279 283 288 294 297 297
200 197 197 195 199 198 196 198 201 204 208 212 216 217 219 221 223 213 215 228 234 233 236 241 244 244 231 244 239 237 245 250 249 258 267 269 279 281 287 289 287 290 289
199 196 197 194 198 198 197 198 199 203 207 209 216 218 219 221 219 215 215 222 233 241 240 238 242 250 253 252 250 252 252 251 237 238 247 261 266 274 278 288 293 292 286
197 197 198 194 193 196 199 198 200 202 205 209 215 217 219 225 214 213 210 224 234 239 242 243 244 245 246 243 249 259 261 262 266 257 256 260 263 264 267 281 283 285 292
197 197 195 195 195 195 196 196 197 201 206 210 214 216 219 224 217 213 209 226 232 238 238 239 240 245 248 240 243 253 260 263 269 275 275 265 256 258 257 254 266 271 283
194 194 194 195 196 196 196 196 196 200 205 210 214 218 220 219 225 212 209 221 232 234 241 244 242 229 231 238 238 249 257 275 273 274 274 275 275 281 280 268 253 250 266
192 194 191 193 195 195 196 196 199 201 206 207 214 220 221 226 223 217 210 214 227 235 243 244 245 227 220 230 234 242 250 258 266 270 269 271 276 279 284 281 275 276 263
191 189 190 193 195 194 194 196 198 202 209 210 212 218 222 218 225 218 214 213 221 231 240 246 267 223 222 231 238 240 242 250 252 258 259 264 271 272 281 281 267 257 264
185 187 188 191 194 200 194 200 206 206 211 217 217 219 220 220 220 218 211 212 223 226 240 254 254 263 265 268 259 224 229 238 242 249 260 269 267 268 273 289 301 306 306
178 182 183 187 187 190 204 204 211 214 232 220 221 218 218 221 220 217 217 205 209 213 218 227 232 233 239 243 243 243 240 229 231 233 241 256 261 283 294 297 301 309 306
160 170 177 182 172 188 186 174 70 48 352 338 316 278 227 220 99 189 211 237 167 161 195 223 221 228 230 232 236 230 215 203 207 221 243 268 274 283 292 304 308 307 303
78 116 141 155 161 160 150 165 185 136 62 301 288 271 270 278 221 201 209 216 191 178 221 204 213 215 216 220 209 201 210 210 207 238 251 266 274 277 288 305 300 279 299
92 59 134 144 152 164 175 181 156 358 292 250 251 258 254 239 212 202 186 155 177 206 209 204 203 179 176 181 195 208 209 205 220 246 252 261 267 287 281 287 281 289 309
48 48 95 149 192 162 127 27 106 235 256 251 229 244 165 170 163 156 168 219 204 181 169 154 149 171 179 185 197 223 239 229 250 255 248 255 268 267 266 272 276 308 286
26 47 341 97 131 103 172 177 220 241 245 223 226 204 158 138 155 156 149 170 164 164 164 156 150 156 131 182 192 208 209 208 222 243 252 255 261 265 263 265 272 279 292
1 347 325 141 89 103 143 148 198 237 220 211 171 106 167 184 154 143 129 109 112 118 118 101 100 90 104 98 200 211 219 234 234 251 257 261 269 268 274 284 285 285 270
335 342 339 17 108 137 151 163 188 224 165 150 122 99 100 118 123 121 112 98 85 75 84 111 121 110 99 126 91 227 249 256 266 269 271 268 267 269 265 266 251 249 271
321 322 325 279 83 107 161 169 170 173 174 164 161 154 142 129 122 113 99 92 92 87 75 78 82 79 64 51 23 337 317 312 311 307 292 284 268 270 267 269 275 273 259
297 329 330 344 54 298 141 143 121 132 149 152 150 144 139 129 122 119 117 113 107 101 97 92 82 74 67 54 30 11 22 347 321 300 294 282 284 271 260 272 282 280 288
322 353 33 47 52 60 64 78 107 106 111 130 137 133 130 127 126 122 121 119 117 116 115 114 109 86 62 51 34 11 357 340 315 313 282 266 273 282 280 283 281 284 280
30 49 53 52 62 56 63 60 47 66 86 92 94 107 119 120 123 125 130 134 127 119 115 105 95 86 72 49 27 15 5 351 341 327 311 285 299 301 303 305 292 275 275